Regional Weather Roundup
Issued by NWS Newport/Morehead, NC

Current Version | Previous Version | Text Only | Print | Product List | Glossary On
Versions: 1 2 3 4 5 6 7 8 9 10 11 12 13 14 15 16 17 18 19 20 21 22 23 24 25 26 27 28 29 30 31 32 33 34 35 36 37 38 39 40 41 42 43 44 45 46 47 48 49 50
913 ASUS42 KMHX 232026 RWRMHX WEATHER ROUNDUP FOR EASTERN NORTH CAROLINA NATIONAL WEATHER SERVICE NEWPORT/MOREHEAD CITY NC 400 PM EDT WED AUG 23 2017 NOTE: "FAIR" INDICATES FEW OR NO CLOUDS BELOW 12,000 FEET WITH NO SIGNIFICANT WEATHER AND/OR OBSTRUCTIONS TO VISIBILITY NCZ015>017-031-032-045>047-102-103-232100- NORTH COAST CITY SKY/WX TMP DP RH WIND PRES REMARKS EDENTON SUNNY 93 76 58 CALM 29.80F HX 105 ELIZABETH CITY MOSUNNY 88 76 67 S14 29.80F KITTY HAWK MOCLDY 78 70 74 CALM 29.81F MANTEO CLOUDY 76 71 82 SW17 29.83F $$ NCZ045>047-081-094-103-104-232100- CENTRAL COAST CITY SKY/WX TMP DP RH WIND PRES REMARKS FRISCO MOSUNNY 85 79 82 SW12 29.84F $$ NCZ095-097-098-100-101-232100- SOUTHERN COAST CITY SKY/WX TMP DP RH WIND PRES REMARKS BEAUFORT SUNNY 87 80 79 SW18 29.84F HX 103 CEDAR ISLAND NOT AVBL JACKSONVILLE MOSUNNY 88 79 74 S8 29.81F THUNDER HX 102 PINEY ISLAND N/A N/A N/A N/A S12 29.82F WILMINGTON MOSUNNY 91 76 61 S10 29.82F HX 103 $$ NCZ011>013-027>030-043-044-078>080-089-090>093-098-232100- COASTAL PLAIN CITY SKY/WX TMP DP RH WIND PRES REMARKS AHOSKIE N/A 83 71 66 S6 29.80S CLINTON SUNNY 94 74 52 S7 29.81F HX 104 ELIZABETHTOWN NOT AVBL GOLDSBORO MOSUNNY 94 70 46 SW12 29.79F HX 100 GREENVILLE SUNNY 93 72 49 W5 29.82F HX 100 HAVELOCK MOSUNNY 88 76 67 S13 29.83F KENANSVILLE PTSUNNY 91 72 52 SW5 29.81F KINSTON MOSUNNY 93 70 46 SW3 29.81F NEW BERN MOSUNNY 89 78 70 S13 29.82F HX 103 RICHLANDS TSTM 84 71 65 SW12 29.83F ROCKY MOUNT MOSUNNY 90 75 61 SW3 29.78F HX 100 WASHINGTON MOSUNNY 92 74 55 SW7 29.79F HX 102 WHITEVILLE SUNNY 93 72 51 SW9 29.82F HX 100 $$ AMZ130-135-150-152-154-156-158-170-250-252-270-ANZ085-086-088-633-658-670-232100- MARINE OBSERVATIONS STATION/POSITION TIME TEMP WIND PRES WAVE SWELL AIR SEA DIR/SP/G HT/PER HT/PER (UTC) (F) (DEG/KT/KT) (MB) (FT/S) (FT/S) CHESAPEAKE LIGHT NOT AVBL 64 E VA BEACH 1950 81 80 200/ 6/ 8 1010.6 3/ 9 3/ 9 DUCK 2000 82 67 180/ 14/ 19 1009.1 2 E DUCK 2000 74 N/A 2/ 9 OREGON INLET 2000 80 84 200/ 8/ 12 1010.0 13E OREGON INLT 1948 80 N/A 3/ 8 2/ 8 HATTERAS CG 2000 84 81 220/ 9/ 14 1010.4 DIAMOND BUOY 1950 84 85 230/ 16/ 19 1010.6 4/ 5 2/ 8 CAPE LOOKOUT 2000 84 220/ 12/ 15 1010.3 BEAUFORT LAB 2000 85 82 210/ 12/ 17 1009.7 30 SE NEW RVR IN 2008 81 84 230/ 14/ 17 1010.9 30 SE NEW RVR IN 1943 84 N/A 4/ 8 27 SE WRIGHTSVLE 2008 83 84 210/ 14/ 19 1010.6 5 SE WRIGHTSVLE 2008 84 84 200/ 14/ 21 1010.5 225 S CAPE HAT 1950 84 86 210/ 6/ 6 1013.3 3/ 8 3/ 8 41 SE CHARLESTON 2010 84 85 210/ 12/ 14 1011.3 $$

USA.gov is the U.S. government's official web portal to all federal, state and local government web resources and services.